[[{"header":{"parameterUnit":"m.s-1","parameterCategory":1,"la1":30.2991,"la2":30.254,"lo1":-89.0895,"lo2":-89.0444,"dx":0.0017,"dy":0.0017,"nx":28,"ny":28,"refTime":"2022-12-09T15:00:00:Z","depth":0,"parameterNumber":2,"parameterNumberName":"U-component_of_WINDS"},"data":[0,0,0,0,0,0,0,0,0,0,0,0,0,0,0,0,0,0,0,0,0,0,0,0,0,0,0,0,0,0,0,0,0,0,0,0,0,0,0,0,0,0,0,0,0,0,0,0,0,0,0,0,0,0,0,0,0,0,-1.0102,-1.0102,0,-1.0123,-1.0123,-1.0123,-1.0108,-1.0107,-1.0106,-1.0106,-1.0126,-1.0127,-1.0128,0,0,0,0,0,0,0,0,0,0,0,0,0,-1.005,-1.0051,-1.0102,-1.0102,-1.0102,-1.0122,-1.0123,-1.0123,-1.0108,-1.0107,-1.0106,-1.0106,-1.0126,-1.0127,-1.0128,0,0,0,0,0,0,0,0,0,0,0,0,0,-1.0072,-1.0051,-1.0102,-1.0097,-1.0097,-1.0122,-1.0123,-1.0123,-1.0108,-1.0107,-1.0106,-1.0105,-1.0125,-1.0127,-1.0128,-1.0159,0,0,-1.0134,-1.0135,0,0,0,0,0,0,0,0,-1.007,-1.0073,-1.0098,-1.0097,-1.0097,-1.0112,-1.0112,-1.0135,-1.0108,-1.0104,-1.0106,-1.0105,-1.0122,-1.0124,-1.013,-1.016,-1.0161,-1.0134,-1.0135,-1.0136,-1.0136,0,0,0,0,0,0,0,-1.0069,-1.0072,-1.011,-1.0098,-1.0098,-1.0094,-1.0096,-1.0116,-1.0118,-1.0104,-1.0103,-1.0106,-1.0122,-1.0128,-1.013,-1.0161,-1.0134,-1.0135,-1.0136,-1.0137,-1.022,-1.0221,0,0,0,0,0,0,-1.0068,-1.0071,-1.0109,-1.011,-1.0081,-1.0096,-1.0098,-1.0108,-1.0118,-1.0118,-1.0107,-1.0105,-1.0126,-1.0128,-1.0131,-1.0168,-1.0136,-1.0137,-1.0138,-1.0219,-1.022,-1.0222,0,0,0,0,0,0,-1.0067,-1.0071,-1.0108,-1.0091,-1.0095,-1.0098,-1.0109,-1.0109,-1.0115,-1.012,-1.012,-1.0113,-1.0125,-1.0128,-1.0153,-1.0169,-1.0138,-1.014,-1.0217,-1.0219,-1.0221,-1.0243,0,0,0,0,0,0,-1.0065,-1.0071,-1.0082,-1.0091,-1.0096,-1.013,-1.011,-1.011,-1.0119,-1.0117,-1.0126,-1.0126,-1.0125,-1.015,-1.0155,-1.0171,-1.0141,-1.0216,-1.0218,-1.022,-1.0241,-1.0245,-1.0249,0,0,0,0,0,-1.0063,-1.0087,-1.0083,-1.0087,-1.011,-1.0131,-1.0133,-1.0131,-1.012,-1.0132,-1.0135,-1.0126,-1.0167,-1.0153,-1.0158,-1.0174,-1.0215,-1.0218,-1.022,-1.0239,-1.0244,-1.0249,0,0,0,0,0,0,-1.0078,-1.0088,-1.0083,-1.011,-1.012,-1.0128,-1.0142,-1.0137,-1.0149,-1.0147,-1.0144,-1.0146,-1.0172,-1.0176,-1.016,-1.0206,-1.0189,-1.0193,-1.0202,-1.0207,-1.0211,-1.0209,-1.0142,0,0,0,0,0,-1.0085,-1.0101,-1.0108,-1.0131,-1.0136,-1.0139,-1.0147,-1.0145,-1.0155,-1.0159,-1.0164,-1.0173,-1.0188,-1.0198,-1.0212,-1.0242,-1.0244,-1.0256,-1.026,-1.0264,-1.0267,-1.0284,-1.029,-1.023,-1.023,-1.023,0,0,-1.0098,-1.0105,-1.0115,-1.0134,-1.0141,-1.0158,-1.0142,-1.016,-1.0172,-1.0161,-1.0185,-1.0189,-1.02,-1.0228,-1.024,-1.0232,-1.0284,-1.0267,-1.027,-1.0271,-1.0288,-1.0293,-1.0298,-1.0232,-1.0232,-1.0231,0,0,-1.0131,-1.0138,-1.0158,-1.0167,-1.0179,-1.018,-1.0186,-1.0195,-1.0198,-1.0222,-1.0215,-1.023,-1.0256,-1.0264,-1.0272,-1.0312,-1.0304,-1.0317,-1.0337,-1.0355,-1.0359,-1.0364,-1.0378,-1.0383,-1.032,-1.032,-1.032,0,-1.0145,-1.017,-1.0169,-1.0189,-1.0198,-1.0191,-1.0212,-1.022,-1.0236,-1.0242,-1.0233,-1.0267,-1.0274,-1.0304,-1.0314,-1.032,-1.0327,-1.0314,-1.0359,-1.0363,-1.0367,-1.0381,-1.0386,-1.0321,-1.0321,-1.0321,-1.0321,0,-1.0188,-1.0206,-1.0221,-1.0238,-1.0249,-1.0269,-1.0272,-1.0284,-1.0282,-1.0285,-1.0311,-1.0319,-1.0336,-1.0343,-1.034,-1.0374,-1.0368,-1.0359,-1.0342,-1.0374,-1.0387,-1.0392,-1.0323,-1.0323,-1.0322,-1.0322,0,0,-1.0227,-1.0246,-1.0252,-1.026,-1.0274,-1.0288,-1.0309,-1.0326,-1.0337,-1.0349,-1.0366,-1.039,-1.0383,-1.0392,-1.039,-1.0406,-1.0438,-1.0395,-1.0395,-1.0403,-1.0476,-1.0482,-1.0488,-1.0434,-1.0435,-1.0436,-1.0475,0,-1.0261,-1.0297,-1.0299,-1.0332,-1.0349,-1.0344,-1.0363,-1.0374,-1.0379,-1.0394,-1.0399,-1.0416,-1.0405,-1.041,-1.0426,-1.0431,-1.0453,-1.0428,-1.045,-1.0451,-1.0447,-1.0495,-1.0501,-1.0538,-1.048,-1.0481,-1.0482,0,-1.0303,-1.0318,-1.0354,-1.0368,-1.0375,-1.0392,-1.0409,-1.0424,-1.0437,-1.044,-1.0452,-1.0449,-1.0471,-1.0455,-1.0486,-1.047,-1.048,-1.0484,-1.0485,-1.0486,-1.0467,-1.0497,-1.0549,-1.0554,-1.049,-1.0489,-1.0489,0,-1.0328,-1.0358,-1.0383,-1.0391,-1.0408,-1.042,-1.0427,-1.044,-1.0451,-1.0467,-1.0474,-1.0491,-1.0501,-1.0515,-1.0517,-1.0505,-1.0549,-1.0533,-1.0552,-1.0552,-1.0559,-1.0559,-1.0613,-1.0567,-1.0567,-1.0567,-1.0567,0,-1.0365,-1.0386,-1.0395,-1.041,-1.0436,-1.0438,-1.0463,-1.047,-1.0482,-1.0499,-1.0497,-1.0513,-1.0516,-1.0533,-1.0536,-1.0562,-1.0566,-1.0569,-1.0569,-1.0568,-1.0568,-1.0574,-1.0571,-1.0569,-1.0568,-1.0568,-1.0568,0,-1.0396,-1.0402,-1.043,-1.0445,-1.045,-1.0468,-1.0481,-1.0496,-1.0502,-1.0524,-1.0529,-1.0538,-1.0558,-1.0563,-1.0587,-1.0589,-1.062,-1.0618,-1.0615,-1.0615,-1.0634,-1.0632,-1.0693,-1.0701,-1.0651,-1.0651,-1.0651,0,-1.0418,-1.0435,-1.0453,-1.0465,-1.0474,-1.0492,-1.0505,-1.0509,-1.0522,-1.054,-1.0554,-1.0574,-1.0591,-1.0624,-1.0632,-1.0651,-1.0649,-1.067,-1.0652,-1.0652,-1.065,-1.0648,-1.065,-1.0672,-1.0673,-1.0673,-1.0674,0,-1.0456,-1.0459,-1.0477,-1.0497,-1.0512,-1.0527,-1.0542,-1.0552,-1.0559,-1.0574,-1.0595,-1.0609,-1.0635,-1.0655,-1.0675,-1.0683,-1.068,-1.068,-1.0685,-1.0684,-1.0682,-1.0683,-1.0624,-1.0678,-1.0677,-1.0677,-1.0677,-1.0677,-1.0483,-1.0499,-1.0515,-1.0535,-1.0548,-1.0562,-1.0578,-1.0587,-1.0606,-1.0627,-1.063,-1.0653,-1.0669,-1.0695,-1.0705,-1.0724,-1.0718,-1.0725,-1.0727,-1.0729,-1.073,-1.068,-1.0728,-1.0728,-1.0728,-1.0727,-1.0727,0,-1.0521,-1.0532,-1.0551,-1.0573,-1.059,-1.0588,-1.0605,-1.0619,-1.064,-1.0655,-1.0673,-1.0699,-1.072,-1.0731,-1.0752,-1.0765,-1.0764,-1.0771,-1.0769,-1.0771,-1.0735,-1.0728,-1.0771,-1.0771,-1.0771,-1.0771,-1.0771,-1.0771,-1.0542,-1.0569,-1.0575,-1.0609,-1.062,-1.0644,-1.0654,-1.0669,-1.0681,-1.0711,-1.0728,-1.0737,-1.0751,-1.0773,-1.0793,-1.0796,-1.0803,-1.081,-1.0813,-1.0778,-1.0773,-1.0769,-1.0763,-1.0812,-1.0812,-1.0847,-1.0847,-1.0848]},{"header":{"parameterUnit":"m.s-1","parameterCategory":1,"la1":30.2991,"la2":30.254,"lo1":-89.0895,"lo2":-89.0444,"dx":0.0017,"dy":0.0017,"nx":28,"ny":28,"refTime":"2022-12-09T15:00:00:Z","depth":0,"parameterNumber":3,"parameterNumberName":"V-component_of_WINDS"},"data":[0,0,0,0,0,0,0,0,0,0,0,0,0,0,0,0,0,0,0,0,0,0,0,0,0,0,0,0,0,0,0,0,0,0,0,0,0,0,0,0,0,0,0,0,0,0,0,0,0,0,0,0,0,0,0,0,0,0,0.5436,0.5437,0,0.5478,0.5479,0.5479,0.5515,0.5516,0.5516,0.5516,0.5558,0.5558,0.5559,0,0,0,0,0,0,0,0,0,0,0,0,0,0.5385,0.5386,0.5436,0.5437,0.5437,0.5478,0.5479,0.5479,0.5515,0.5516,0.5516,0.5517,0.5557,0.5558,0.5559,0,0,0,0,0,0,0,0,0,0,0,0,0,0.5415,0.5386,0.5436,0.546,0.5463,0.5478,0.5479,0.5479,0.5515,0.5516,0.5516,0.5517,0.5557,0.5558,0.5559,0.5554,0,0,0.5562,0.5563,0,0,0,0,0,0,0,0,0.5414,0.5417,0.5456,0.5458,0.5461,0.5492,0.5476,0.5504,0.5515,0.5495,0.5516,0.5517,0.5535,0.5538,0.5545,0.5556,0.5557,0.5563,0.5563,0.5564,0.5564,0,0,0,0,0,0,0,0.5411,0.5416,0.5453,0.5456,0.546,0.5468,0.5473,0.5482,0.5511,0.5497,0.55,0.5504,0.5537,0.5543,0.5546,0.5558,0.5563,0.5563,0.5564,0.5565,0.5567,0.5566,0,0,0,0,0,0,0.5406,0.5414,0.5451,0.5454,0.5439,0.5469,0.5474,0.5482,0.5511,0.5516,0.5504,0.5506,0.5541,0.5545,0.5547,0.5543,0.5564,0.5565,0.5565,0.5567,0.5567,0.5566,0,0,0,0,0,0,0.5405,0.5409,0.545,0.5435,0.544,0.5469,0.5477,0.5482,0.5489,0.5516,0.5522,0.5505,0.5542,0.5546,0.5552,0.5545,0.5565,0.5566,0.5568,0.5567,0.5566,0.5534,0,0,0,0,0,0,0.5403,0.5408,0.5407,0.5434,0.5441,0.5454,0.5476,0.5482,0.5491,0.5494,0.5519,0.5524,0.5543,0.555,0.5553,0.5547,0.5567,0.5569,0.5568,0.5567,0.5535,0.5532,0.5529,0,0,0,0,0,0.5401,0.5395,0.5406,0.5411,0.544,0.5453,0.5457,0.548,0.549,0.5489,0.5506,0.5523,0.5545,0.5551,0.5554,0.5548,0.5569,0.5568,0.5567,0.5537,0.5532,0.5529,0,0,0,0,0,0,0.5365,0.5399,0.5412,0.5415,0.5431,0.5459,0.5458,0.5474,0.5487,0.5489,0.5516,0.5521,0.5524,0.5537,0.5542,0.5544,0.556,0.5559,0.5536,0.5532,0.5528,0.5525,0.5568,0,0,0,0,0,0.5358,0.5366,0.5396,0.5395,0.5403,0.5429,0.5436,0.5452,0.5469,0.5476,0.5494,0.551,0.5521,0.5527,0.5538,0.5538,0.5544,0.5535,0.5532,0.5529,0.5528,0.5528,0.5525,0.5562,0.5562,0.5562,0,0,0.5342,0.5362,0.5365,0.5389,0.5403,0.5411,0.5434,0.5442,0.5448,0.5477,0.5484,0.5498,0.5517,0.552,0.5522,0.5531,0.5519,0.5527,0.5525,0.5525,0.5527,0.5523,0.552,0.5561,0.5561,0.5561,0,0,0.5318,0.5334,0.5335,0.5349,0.5371,0.5389,0.5389,0.5416,0.5426,0.5434,0.5456,0.5463,0.5481,0.5494,0.5503,0.5485,0.55,0.5488,0.5469,0.5469,0.5467,0.5464,0.5457,0.5454,0.5487,0.5487,0.5486,0,0.5295,0.5308,0.5334,0.534,0.535,0.5378,0.5379,0.5392,0.5416,0.5421,0.5431,0.5454,0.5469,0.5475,0.5471,0.5477,0.5478,0.5484,0.5465,0.5463,0.5461,0.5454,0.5452,0.5485,0.5485,0.5485,0.5485,0,0.528,0.5289,0.5287,0.5311,0.532,0.5324,0.535,0.5356,0.5372,0.5388,0.5396,0.5415,0.5431,0.5434,0.5449,0.5442,0.5447,0.546,0.5476,0.5455,0.545,0.5447,0.5482,0.5483,0.5483,0.5484,0,0,0.5232,0.5271,0.527,0.5281,0.5307,0.5314,0.532,0.5336,0.5341,0.5357,0.5362,0.5377,0.539,0.54,0.5416,0.5417,0.5401,0.543,0.5431,0.5424,0.5394,0.5383,0.538,0.5412,0.5411,0.5411,0.5392,0,0.5212,0.5223,0.5246,0.525,0.5259,0.5286,0.5291,0.5307,0.5323,0.5332,0.535,0.536,0.5376,0.5383,0.5384,0.5402,0.5395,0.5404,0.5416,0.5416,0.5409,0.5377,0.5366,0.5347,0.539,0.539,0.539,0,0.5189,0.5204,0.5208,0.5235,0.5239,0.5243,0.526,0.5269,0.5288,0.53,0.5312,0.5331,0.5337,0.5353,0.5362,0.5368,0.5374,0.5384,0.5383,0.5384,0.5401,0.5377,0.5342,0.5338,0.5387,0.5387,0.5387,0,0.5153,0.5174,0.518,0.5189,0.522,0.5222,0.5235,0.5255,0.5264,0.5279,0.5284,0.53,0.5308,0.5319,0.5341,0.535,0.5348,0.5365,0.5357,0.5356,0.5354,0.5354,0.5319,0.536,0.536,0.536,0.536,0,0.5127,0.5128,0.5165,0.5168,0.5171,0.5198,0.52,0.5215,0.5233,0.524,0.5265,0.527,0.53,0.5309,0.5326,0.5331,0.5335,0.5344,0.5348,0.5341,0.534,0.5345,0.5346,0.5359,0.5359,0.5359,0.5359,0,0.5087,0.5111,0.5119,0.5149,0.5156,0.5157,0.5182,0.5186,0.5204,0.5212,0.5215,0.5243,0.5255,0.5279,0.5297,0.5309,0.5309,0.5318,0.5303,0.5305,0.5296,0.5296,0.5262,0.5259,0.5302,0.5302,0.5301,0,0.5068,0.507,0.51,0.5106,0.5119,0.5129,0.5138,0.5165,0.5173,0.5196,0.5198,0.5212,0.5224,0.5242,0.5263,0.5277,0.5286,0.5273,0.5288,0.5281,0.5285,0.5284,0.5284,0.5269,0.5269,0.5268,0.5268,0,0.5032,0.5044,0.5056,0.5073,0.5083,0.5098,0.5113,0.5117,0.5148,0.5156,0.5169,0.5179,0.5198,0.5211,0.5229,0.5242,0.5259,0.5263,0.5262,0.5254,0.5245,0.5249,0.5293,0.5263,0.5264,0.5264,0.5264,0.5265,0.5001,0.5004,0.5026,0.5039,0.5054,0.5068,0.5074,0.5093,0.5104,0.5122,0.5138,0.5149,0.5169,0.5195,0.5207,0.5216,0.5225,0.5223,0.5222,0.5221,0.5218,0.5245,0.5219,0.5219,0.522,0.522,0.522,0,0.4966,0.4981,0.4993,0.5015,0.5025,0.5042,0.5061,0.5068,0.5078,0.5095,0.5108,0.5123,0.5136,0.5159,0.5174,0.5177,0.5186,0.518,0.518,0.5182,0.521,0.5209,0.5173,0.5173,0.5173,0.5173,0.5173,0.5173,0.4948,0.4955,0.497,0.4984,0.4999,0.5011,0.502,0.5033,0.5048,0.5063,0.5075,0.509,0.511,0.5127,0.514,0.5146,0.515,0.5142,0.5151,0.5176,0.518,0.5184,0.5184,0.5143,0.5143,0.5123,0.5122,0.5122]}]]